When you browse on this site, cookies collect data to enhance your experience and personalize the content and advertising you see.
Visit our Privacy Policy to learn more. By continuing to use the site, you agree to this use of cookies and data.
  • In Spain
  • List of Countries
  • For 7 days
  • Water Temperature
  • Weather Map
  • Weather Widgets
  • user-avatar
    Login

    Hourly Weather Bururi

    Today, 29 February, Saturday

    Time Temperature Precipitation Wind Pressure Humidity
    00:00 +16°C° 0 mm 1 mps 616 mmHg 93%
    01:00 +16°C° 0 mm 1 mps 616 mmHg 93%
    02:00 +15°C° 0 mm 0 mps 616 mmHg 90%
    03:00 +14°C° 0 mm 0 mps 616 mmHg 90%
    04:00 +14°C° 0 mm 0 mps 616 mmHg 89%
    05:00 +14°C° 0 mm 0 mps 616 mmHg 88%
    06:00 +15°C° 0 mm 0 mps 616 mmHg 87%
    07:00 +16°C° 0 mm 0 mps 617 mmHg 86%
    08:00 +17°C° 0 mm 0 mps 618 mmHg 86%
    09:00 +21°C° 0 mm 1 mps 618 mmHg 80%
    10:00 +22°C° 0 mm 1 mps 619 mmHg 74%
    11:00 +24°C° 0 mm 1 mps 619 mmHg 68%
    12:00 +24°C° 0.8 mm 1 mps 618 mmHg 71%
    13:00 +24°C° 0.8 mm 1 mps 617 mmHg 73%
    14:00 +24°C° 0.8 mm 1 mps 617 mmHg 76%
    15:00 +23°C° 1 mm 1 mps 616 mmHg 79%
    16:00 +21°C° 1 mm 0 mps 615 mmHg 83%
    17:00 +20°C° 1 mm 0 mps 615 mmHg 87%
    18:00 +19°C° 0.3 mm 0 mps 615 mmHg 88%
    19:00 +18°C° 0.3 mm 0 mps 615 mmHg 89%
    20:00 +18°C° 0.3 mm 1 mps 615 mmHg 90%
    21:00 +18°C° 0 mm 1 mps 616 mmHg 90%
    22:00 +18°C° 0 mm 1 mps 616 mmHg 89%
    23:00 +18°C° 0 mm 1 mps 616 mmHg 88%

    Tomorrow, 1 March, Sunday

    Time Temperature Precipitation Wind Pressure Humidity
    00:00 +18°C° 0.2 mm 1 mps 616 mmHg 88%
    01:00 +16°C° 0.2 mm 1 mps 616 mmHg 88%
    02:00 +16°C° 0.2 mm 1 mps 615 mmHg 87%
    03:00 +16°C° 0.1 mm 1 mps 615 mmHg 87%
    04:00 +16°C° 0.1 mm 1 mps 615 mmHg 87%
    05:00 +16°C° 0.1 mm 1 mps 615 mmHg 87%
    06:00 +18°C° 0.1 mm 1 mps 616 mmHg 87%
    07:00 +17°C° 0.1 mm 0 mps 617 mmHg 86%
    08:00 +18°C° 0.1 mm 0 mps 618 mmHg 86%
    09:00 +20°C° 0.6 mm 0 mps 618 mmHg 82%
    10:00 +23°C° 0.6 mm 1 mps 618 mmHg 77%
    11:00 +24°C° 0.6 mm 1 mps 618 mmHg 73%
    12:00 +24°C° 0.9 mm 1 mps 617 mmHg 75%
    13:00 +24°C° 0.9 mm 1 mps 617 mmHg 77%
    14:00 +23°C° 0.9 mm 1 mps 616 mmHg 79%
    15:00 +23°C° 0.7 mm 1 mps 616 mmHg 81%
    16:00 +22°C° 0.7 mm 1 mps 615 mmHg 83%
    17:00 +21°C° 0.7 mm 1 mps 615 mmHg 86%
    18:00 +20°C° 0.1 mm 1 mps 615 mmHg 87%
    19:00 +19°C° 0.1 mm 1 mps 616 mmHg 88%
    20:00 +18°C° 0.1 mm 1 mps 616 mmHg 89%
    21:00 +18°C° 0.5 mm 1 mps 616 mmHg 90%
    22:00 +18°C° 0.5 mm 1 mps 616 mmHg 91%
    23:00 +18°C° 0.5 mm 1 mps 617 mmHg 92%

    Day after tomorrow, 2 March, Monday

    Time Temperature Precipitation Wind Pressure Humidity
    00:00 +18°C° 0.8 mm 1 mps 616 mmHg 93%
    01:00 +18°C° 0.8 mm 1 mps 616 mmHg 94%
    02:00 +18°C° 0.8 mm 1 mps 616 mmHg 95%
    03:00 +18°C° 1.4 mm 1 mps 616 mmHg 96%
    04:00 +16°C° 1.4 mm 1 mps 616 mmHg 96%
    05:00 +16°C° 1.4 mm 1 mps 616 mmHg 96%
    06:00 +16°C° 2.3 mm 1 mps 617 mmHg 96%
    07:00 +16°C° 2.3 mm 1 mps 617 mmHg 96%
    08:00 +16°C° 2.3 mm 1 mps 618 mmHg 95%
    09:00 +16°C° 0.8 mm 1 mps 618 mmHg 94%
    10:00 +18°C° 0.8 mm 1 mps 618 mmHg 94%
    11:00 +18°C° 0.8 mm 1 mps 618 mmHg 93%
    12:00 +18°C° 0.7 mm 1 mps 617 mmHg 93%
    13:00 +17°C° 0.7 mm 2 mps 616 mmHg 93%
    14:00 +16°C° 0.7 mm 2 mps 616 mmHg 94%
    15:00 +17°C° 0.1 mm 2 mps 616 mmHg 93%
    16:00 +17°C° 0.1 mm 2 mps 616 mmHg 92%
    17:00 +17°C° 0.1 mm 2 mps 616 mmHg 91%
    18:00 +17°C° 0 mm 2 mps 616 mmHg 90%
    19:00 +16°C° 0 mm 1 mps 616 mmHg 90%
    20:00 +16°C° 0 mm 1 mps 616 mmHg 89%
    21:00 +16°C° 0 mm 1 mps 617 mmHg 87%
    22:00 +18°C° 0 mm 1 mps 617 mmHg 85%
    23:00 +18°C° 0 mm 1 mps 617 mmHg 83%

    3 March, Tuesday

    Time Temperature Precipitation Wind Pressure Humidity
    00:00 +18°C° 0 mm 1 mps 617 mmHg 83%
    01:00 +18°C° 0 mm 1 mps 616 mmHg 82%
    02:00 +18°C° 0 mm 1 mps 616 mmHg 82%
    03:00 +18°C° 0 mm 1 mps 616 mmHg 81%
    04:00 +18°C° 0 mm 1 mps 616 mmHg 80%
    05:00 +18°C° 0 mm 1 mps 616 mmHg 79%
    06:00 +19°C° 0 mm 1 mps 617 mmHg 77%
    07:00 +18°C° 0 mm 0 mps 618 mmHg 76%
    08:00 +19°C° 0 mm 0 mps 619 mmHg 74%
    09:00 +22°C° 0.4 mm 1 mps 619 mmHg 73%
    10:00 +23°C° 0.4 mm 1 mps 619 mmHg 72%
    11:00 +24°C° 0.4 mm 1 mps 619 mmHg 71%
    12:00 +24°C° 0.7 mm 1 mps 619 mmHg 72%
    13:00 +23°C° 0.7 mm 1 mps 618 mmHg 73%
    14:00 +23°C° 0.7 mm 1 mps 617 mmHg 74%
    15:00 +23°C° 0.4 mm 1 mps 617 mmHg 76%
    16:00 +22°C° 0.4 mm 1 mps 617 mmHg 78%
    17:00 +22°C° 0.4 mm 1 mps 616 mmHg 80%
    18:00 +21°C° 0 mm 1 mps 617 mmHg 81%
    19:00 +20°C° 0 mm 1 mps 617 mmHg 81%
    20:00 +19°C° 0 mm 1 mps 617 mmHg 82%
    21:00 +18°C° 0.1 mm 1 mps 617 mmHg 82%
    22:00 +18°C° 0.1 mm 1 mps 618 mmHg 82%
    23:00 +18°C° 0.1 mm 1 mps 618 mmHg 82%

    4 March, Wednesday

    Time Temperature Precipitation Wind Pressure Humidity
    00:00 +18°C° 0.6 mm 1 mps 617 mmHg 85%
    01:00 +18°C° 0.6 mm 1 mps 617 mmHg 87%
    02:00 +18°C° 0.6 mm 1 mps 616 mmHg 90%
    03:00 +18°C° 0.2 mm 1 mps 617 mmHg 90%
    04:00 +18°C° 0.2 mm 1 mps 617 mmHg 89%
    05:00 +18°C° 0.2 mm 1 mps 617 mmHg 89%
    06:00 +18°C° 0.6 mm 1 mps 617 mmHg 90%
    07:00 +17°C° 0.6 mm 2 mps 617 mmHg 91%
    08:00 +16°C° 0.6 mm 2 mps 618 mmHg 92%
    09:00 +18°C° 0.6 mm 1 mps 618 mmHg 89%
    10:00 +19°C° 0.6 mm 1 mps 618 mmHg 85%
    11:00 +18°C° 0.6 mm 0 mps 618 mmHg 82%
    12:00 +21°C° 0.2 mm 1 mps 618 mmHg 79%
    13:00 +22°C° 0.2 mm 1 mps 617 mmHg 76%
    14:00 +23°C° 0.2 mm 1 mps 617 mmHg 73%
    15:00 +22°C° 0.7 mm 1 mps 617 mmHg 77%
    16:00 +22°C° 0.7 mm 1 mps 616 mmHg 81%
    17:00 +21°C° 0.7 mm 1 mps 616 mmHg 86%
    18:00 +20°C° 0.1 mm 1 mps 616 mmHg 86%
    19:00 +19°C° 0.1 mm 1 mps 616 mmHg 85%
    20:00 +18°C° 0.1 mm 1 mps 617 mmHg 85%
    21:00 +18°C° 0 mm 1 mps 617 mmHg 84%
    22:00 +18°C° 0 mm 1 mps 617 mmHg 83%
    23:00 +18°C° 0 mm 1 mps 617 mmHg 82%

    5 March, Thursday

    Time Temperature Precipitation Wind Pressure Humidity
    00:00 +18°C° 0 mm 1 mps 617 mmHg 82%
    01:00 +16°C° 0 mm 0 mps 617 mmHg 81%
    02:00 +16°C° 0 mm 0 mps 616 mmHg 81%
    03:00 +16°C° 0.1 mm 1 mps 616 mmHg 82%
    04:00 +16°C° 0.1 mm 1 mps 616 mmHg 83%
    05:00 +16°C° 0.1 mm 1 mps 616 mmHg 84%
    06:00 +18°C° 0 mm 1 mps 617 mmHg 82%
    07:00 +17°C° 0 mm 0 mps 617 mmHg 80%
    08:00 +19°C° 0 mm 0 mps 618 mmHg 79%
    09:00 +20°C° 0.6 mm 0 mps 618 mmHg 77%
    10:00 +23°C° 0.6 mm 1 mps 618 mmHg 76%
    11:00 +24°C° 0.6 mm 1 mps 619 mmHg 74%
    12:00 +24°C° 1.3 mm 1 mps 618 mmHg 74%
    13:00 +24°C° 1.3 mm 1 mps 617 mmHg 73%
    14:00 +24°C° 1.3 mm 1 mps 616 mmHg 73%
    15:00 +23°C° 0.8 mm 1 mps 616 mmHg 75%
    16:00 +21°C° 0.8 mm 0 mps 616 mmHg 78%
    17:00 +20°C° 0.8 mm 0 mps 615 mmHg 81%
    18:00 +19°C° 0.1 mm 0 mps 616 mmHg 82%
    19:00 +18°C° 0.1 mm 0 mps 616 mmHg 82%
    20:00 +19°C° 0.1 mm 1 mps 616 mmHg 83%
    21:00 +18°C° 0 mm 1 mps 616 mmHg 82%
    22:00 +18°C° 0 mm 1 mps 616 mmHg 81%
    23:00 +18°C° 0 mm 1 mps 616 mmHg 79%
    Show more